Notices

What's New in latest Release from April 7th, 2021:

- Updated Glossary, including Speed of Maximum Gust, and Total Hourly Precipitation

- Updated national and regional climate services offices contacts and prices information

- Addition of station inventory lists for 1981-2010, 1971-2000, and 1961-1990 Normals.

If you haven't already, please take our survey and provide feedback about our website: https://eccc.sondage-survey.ca/f/LanguageSelection.aspx?s=442ca660-fcf1-47c0-95a9-59707d6fd709

Hourly Data Report for January 22, 2020

SATURNA ISLAND CS
BRITISH COLUMBIA
Current Station Operator: ECCC - MSC

48°47'02.067" N
123°02'41.082" W
24.40 m
1017101
71473
WEZ

Download Data

Hourly Data (January 2020)
Hourly Data Report for January 22, 2020
TIME
LST
Temp Definition
°C
Dew Point Definition
°C
Rel Hum Definition
%
Precip. Amount Definition
mm

Wind Dir Definition
10's deg

Wind Spd Definition
km/h
Visibility Definition
km
Stn Press Definition
kPa
Hmdx Definition


Wind Chill Definition


Weather Definition


00:00 7.3 5.8 91 0.6 18 22   100.71     LegendNANA
01:00 6.9 5.9 93 2.8 20 24   100.80     LegendNANA
02:00 6.9 5.9 94 0.0 20 18   100.93     LegendNANA
03:00 7.0 6.1 94 0.0 20 26   100.96     LegendNANA
04:00 7.2 6.1 93 0.0 20 24   101.02     LegendNANA
05:00 7.5 6.1 91 0.0 19 25   101.10     LegendNANA
06:00 7.3 6.0 92 0.2 16 26   101.13     LegendNANA
07:00 7.3 6.0 92 0.0 17 29   101.14     LegendNANA
08:00 7.5 5.5 87 0.0 15 24   101.18     LegendNANA
09:00 7.6 5.2 84 0.0 15 24   101.16     LegendNANA
10:00 7.7 5.1 84 0.0 17 24   101.21     LegendNANA
11:00 7.8 5.4 85 0.0 17 34   101.19     LegendNANA
12:00 7.3 5.6 89 0.6 16 35   101.15     LegendNANA
13:00 6.8 5.6 92 2.2 12 34   101.06     LegendNANA
14:00 6.6 5.1 90 2.6 12 37   101.03     LegendNANA
15:00 6.6 5.1 90 1.4 11 37   101.03     LegendNANA
16:00 6.3 5.3 94 1.6 7 26   101.07     LegendNANA
17:00 6.2 5.5 95 0.8 6 29   101.09     LegendNANA
18:00 6.3 5.7 95 0.4 8 28   101.07     LegendNANA
19:00 6.8 5.8 93 0.2 10 24   101.05     LegendNANA
20:00 7.1 6.1 93 0.0 10 24   101.05     LegendNANA
21:00 7.9 6.9 93 0.0 12 21   100.99     LegendNANA
22:00 7.9 6.5 91 0.0 11 22   100.99     LegendNANA
23:00 8.1 6.8 91 0.0 11 27   100.94     LegendNANA

Notes on Data Quality.

Legend

  • E = Estimated
  • M = Missing
  • NA = Not Available*
  • [empty] = Indicates an unobserved value
Date modified: